Flag for U.S.A. Weather past 2 weeks in Sunrise, Florida, U.S.A.

Now
84 °F

Clear.


Feels Like: 93 °F
Forecast: 76 / 93 °F
Wind: 8 mph from East

Location: Fort Lauderdale Executive Airport

Current Time: Aug 23, 2014 at 1:53:18 AM

Latest Report: Aug 23, 2014 at 12:53 AM


Visibility: 10 mi

Pressure: 29.99 "Hg

Humidity: 77%

Dew point: 76 °F

Location of SunriseLocation

Historic Weather in Sunrise — Graph

°F

Sunrise temperature yesterday

Maximum temperature yesterday: 92 °F (at 12:53 PM)
Minimum temperature yesterday: 80 °F (at 6:53 AM)
Average temperature yesterday: 86 °F

Past Weeks' High & Low Weather Summary

 TemperatureHumidityPressure
High94 °F (Aug 9, 2:53 PM)100% (Aug 14, 4:53 PM)30.13 "Hg (Aug 14, 4:53 PM)
Low74 °F (Aug 15, 2:02 PM)46% (Aug 9, 2:53 PM)29.98 "Hg (Aug 19, 4:53 PM)
Average84 °F78%30.05 "Hg
* Reported Aug 8 12:53 AM — Aug 23 12:53 AM, Sunrise, Weather by CustomWeather, © 2014

Note: Actual official high and low records may vary slightly from our data, if they occured in-between our weather recording intervals... More about our weather records

Advertising

Sunrise weather history for previous 24 hours

 ConditionsComfort  
Time TempWeatherWind HumidityBarometerVisibility
12:53 AM
Aug 23
84 °FClear.8 mph77%29.99 "Hg10 mi
11:53 PM
Aug 22
85 °FClear.7 mph75%30.01 "Hg10 mi
10:53 PM85 °FClear.6 mph72%30.03 "Hg10 mi
9:53 PM85 °FClear.9 mph70%30.03 "Hg10 mi
8:53 PM85 °FClear.9 mph70%30.03 "Hg10 mi
7:53 PM86 °FSunny.14 mph72%30.00 "Hg10 mi
6:53 PM87 °FPassing clouds.12 mph67%29.99 "Hg10 mi
5:53 PM89 °FPassing clouds.7 mph63%30.00 "Hg10 mi
4:53 PM89 °FScattered clouds.10 mph65%30.01 "Hg10 mi
4:03 PM91 °FSunny.12 mph60%30.01 "Hg10 mi
3:53 PM92 °FThunderstorms. Scattered clouds.8 mph58%30.01 "Hg10 mi
2:53 PM90 °FThunderstorms. Scattered clouds.10 mph63%30.04 "Hg10 mi
1:53 PM88 °FThunderstorms. Scattered clouds.10 mph65%30.06 "Hg10 mi
12:53 PM92 °FScattered clouds.13 mph62%30.06 "Hg10 mi
11:53 AM91 °FScattered clouds.9 mph61%30.08 "Hg10 mi
10:53 AM89 °FPassing clouds.5 mph61%30.09 "Hg10 mi
9:53 AM88 °FScattered clouds.7 mph67%30.08 "Hg10 mi
8:53 AM86 °FSunny.5 mph75%30.07 "Hg10 mi
7:53 AM83 °FClear.No wind88%30.07 "Hg10 mi
6:53 AM80 °FClear.No wind90%30.05 "Hg10 mi
5:53 AM81 °FClear.No wind88%30.04 "Hg10 mi
4:53 AM82 °FClear.No wind82%30.04 "Hg10 mi
3:53 AM82 °FClear.6 mph85%30.05 "Hg10 mi
2:53 AM82 °FClear.No wind85%30.07 "Hg10 mi
1:53 AM83 °FPassing clouds.3 mph82%30.09 "Hg10 mi
Weather by CustomWeather, © 2014

See weather overviewHow to use our weather pages